Andrews, NC

6:11 PM EST on December 18, 2017 (GMT -0500)
Andrews

Weather History for KRHP - February, 2013

Change the Weather History Date:

Friday, February 15, 2013

  Actual Average (KMMI) Record (KMMI)
Temperature  
Mean Temperature 40 °F -  
Max Temperature 56 °F 54 °F 50 °F (2017)
Min Temperature 25 °F 30 °F 10 °F (2015)
Degree Days  
Heating Degree Days 25    
Moisture  
Dew Point 31 °F    
Average Humidity 80    
Maximum Humidity 99    
Minimum Humidity 43    
Precipitation  
Precipitation 0.00 in - - ()
Sea Level Pressure  
Sea Level Pressure 30.05 in    
Wind  
Wind Speed 2 mph (NNW)    
Max Wind Speed 17 mph    
Max Gust Speed 25 mph    
Visibility 10 miles    
Events Rain    
Averages and records for this station are not official NWS values.
T = Trace of Precipitation, MM = Missing Value Source: NWS Daily Summary

Daily Weather History Graph

Daily Weather History Graph

Search for Another Location

Airport or City:

Trip Planner

Search our weather history database for the weather conditions in past years. The results will help you decide how hot, cold, wet, or windy it might be!

Date:

Astronomy

Feb. 15, 2013 Rise Set
Actual Time 7:21 AM EST 6:18 PM EST
Civil Twilight 6:55 AM EST 6:44 PM EST
Nautical Twilight 6:25 AM EST 7:13 PM EST
Astronomical Twilight 5:56 AM EST 7:43 PM EST
Moon 10:11 AM EST (2/15) No Moon Set
Length of Visible Light 11h 48m
Length of Day
10h 56m
Waxing Crescent, 30% of the Moon is Illuminated
Feb 15
Waxing Crescent
Feb 17
First Quarter
Feb 25
Full
Mar 4
Last Quarter
Mar 11
New

Hourly Weather History & Observations

Time (EST) Temp. Windchill Dew Point Humidity Pressure Visibility Wind Dir Wind Speed Gust Speed Precip Events Conditions
12:15 AM 30.0 °F - 28.4 °F 94% 30.07 in 10.0 mi Calm Calm - N/A   Clear
12:35 AM 29.1 °F - 27.9 °F 95% 30.07 in 10.0 mi Calm Calm - N/A   Clear
12:55 AM 29.3 °F - 28.6 °F 97% 30.07 in 10.0 mi Calm Calm - N/A   Clear
1:15 AM 28.6 °F - 27.9 °F 97% 30.07 in 10.0 mi Calm Calm - N/A   Clear
1:35 AM 29.1 °F - 27.9 °F 95% 30.07 in 10.0 mi Calm Calm - N/A   Clear
1:55 AM 28.9 °F - 28.2 °F 97% 30.07 in 10.0 mi Calm Calm - N/A   Clear
2:15 AM 28.9 °F - 28.2 °F 97% 30.06 in 10.0 mi Calm Calm - N/A   Clear
2:35 AM 28.0 °F - 27.3 °F 97% 30.06 in 10.0 mi Calm Calm - N/A   Clear
2:55 AM 27.5 °F - 27.0 °F 98% 30.06 in 10.0 mi Calm Calm - N/A   Clear
3:35 AM 27.7 °F - 27.0 °F 97% 30.07 in 10.0 mi Calm Calm - N/A   Clear
3:55 AM 27.7 °F - 27.3 °F 99% 30.06 in 10.0 mi Calm Calm - N/A   Clear
4:15 AM 27.0 °F - 26.6 °F 99% 30.06 in 1.0 mi Calm Calm - N/A   Mist
4:35 AM 27.0 °F - 26.4 °F 98% 30.06 in 5.0 mi Calm Calm - N/A   Clear
4:55 AM 27.0 °F - 26.2 °F 97% 30.06 in 10.0 mi Calm Calm - N/A   Clear
5:15 AM 26.1 °F - 25.3 °F 97% 30.07 in 7.0 mi Calm Calm - N/A   Clear
5:35 AM 27.1 °F - 26.8 °F 99% 30.07 in 7.0 mi Calm Calm - N/A   Clear
5:55 AM 26.2 °F - 25.5 °F 97% 30.08 in 10.0 mi Calm Calm - N/A   Clear
6:15 AM 25.9 °F - 25.5 °F 99% 30.08 in 7.0 mi Calm Calm - N/A   Clear
6:35 AM 25.7 °F - 24.6 °F 96% 30.09 in 10.0 mi Calm Calm - N/A   Clear
6:55 AM 26.6 °F - 25.7 °F 96% 30.10 in 10.0 mi Calm Calm - N/A   Clear
7:15 AM 25.7 °F - 24.8 °F 96% 30.10 in 10.0 mi Calm Calm - N/A   Clear
7:35 AM 26.4 °F - 25.7 °F 97% 30.10 in 7.0 mi Calm Calm - N/A   Clear
7:55 AM 26.6 °F - 26.1 °F 98% 30.11 in 10.0 mi Calm Calm - N/A   Clear
8:15 AM 27.3 °F - 26.6 °F 97% 30.12 in 10.0 mi Calm Calm - N/A   Clear
8:35 AM 28.8 °F - 27.5 °F 95% 30.12 in 10.0 mi Calm Calm - N/A   Clear
8:55 AM 31.3 °F - 29.5 °F 93% 30.11 in 10.0 mi Calm Calm - N/A   Clear
9:15 AM 32.5 °F - 30.7 °F 93% 30.11 in 10.0 mi Calm Calm - N/A   Clear
9:35 AM 34.7 °F - 32.0 °F 90% 30.10 in 10.0 mi Calm Calm - N/A   Clear
9:55 AM 36.3 °F - 32.9 °F 87% 30.09 in 10.0 mi Calm Calm - N/A   Clear
10:15 AM 39.7 °F - 33.8 °F 79% 30.09 in 10.0 mi Calm Calm - N/A   Clear
10:35 AM 42.6 °F - 35.1 °F 75% 30.08 in 10.0 mi Calm Calm - N/A   Clear
10:55 AM 45.5 °F - 34.2 °F 65% 30.08 in 10.0 mi Calm Calm - N/A   Clear
11:15 AM 47.8 °F - 34.0 °F 59% 30.07 in 10.0 mi West 3.5 mph - N/A   Clear
11:35 AM 49.8 °F - 35.1 °F 57% 30.06 in 10.0 mi SW 3.5 mph - N/A   Clear
11:55 AM 51.1 °F - 34.3 °F 53% 30.06 in 10.0 mi West 6.9 mph - N/A   Clear
12:15 PM 52.5 °F - 33.8 °F 49% 30.05 in 10.0 mi West 11.5 mph - N/A   Clear
12:55 PM 54.5 °F - 32.7 °F 44% 30.04 in 10.0 mi West 17.3 mph - N/A   Clear
1:15 PM 55.8 °F - 34.2 °F 44% 30.03 in 10.0 mi WSW 13.8 mph 19.6 mph N/A   Scattered Clouds
1:35 PM 55.4 °F - 34.5 °F 45% 30.01 in 10.0 mi West 12.7 mph 19.6 mph N/A   Mostly Cloudy
2:15 PM 55.8 °F - 33.6 °F 43% 29.99 in 10.0 mi WSW 13.8 mph - N/A   Mostly Cloudy
2:35 PM 53.1 °F - 32.2 °F 45% 29.99 in 10.0 mi West 11.5 mph - N/A   Overcast
2:55 PM 53.4 °F - 31.3 °F 43% 29.98 in 10.0 mi West 11.5 mph - N/A   Overcast
3:15 PM 52.2 °F - 31.3 °F 45% 29.98 in 10.0 mi SW 17.3 mph 25.3 mph N/A   Overcast
3:35 PM 53.2 °F - 33.4 °F 47% 29.97 in 10.0 mi WSW 10.4 mph 18.4 mph N/A   Mostly Cloudy
3:55 PM 50.9 °F - 34.5 °F 54% 29.98 in 10.0 mi WNW 10.4 mph 23.0 mph N/A Rain Light Rain
4:15 PM 45.5 °F 40.3 °F 38.5 °F 76% 29.99 in 7.0 mi NNW 10.4 mph 16.1 mph N/A Rain Light Rain
4:35 PM 45.0 °F 42.6 °F 38.8 °F 79% 30.00 in 10.0 mi NW 4.6 mph - N/A Rain Light Rain
4:55 PM 45.5 °F - 39.2 °F 79% 30.00 in 10.0 mi Calm Calm - N/A Rain Light Rain
5:15 PM 45.0 °F - 39.7 °F 82% 30.00 in 10.0 mi Calm Calm - N/A   Overcast
5:35 PM 44.6 °F 43.1 °F 40.6 °F 86% 30.01 in 10.0 mi NW 3.5 mph - N/A Rain Light Rain
5:55 PM 44.6 °F 41.4 °F 40.8 °F 87% 30.01 in 10.0 mi NE 5.8 mph - N/A   Light Drizzle
6:15 PM 44.2 °F 42.7 °F 39.2 °F 82% 30.01 in 10.0 mi ENE 3.5 mph - N/A   Overcast
6:35 PM 43.9 °F 38.8 °F 37.8 °F 79% 30.01 in 10.0 mi NE 9.2 mph - N/A   Overcast
6:55 PM 42.8 °F 39.3 °F 36.0 °F 77% 30.03 in 10.0 mi NNE 5.8 mph - N/A   Overcast
7:15 PM 42.3 °F 38.6 °F 35.1 °F 76% 30.03 in 10.0 mi East 5.8 mph - N/A   Overcast
7:35 PM 41.5 °F 38.6 °F 34.9 °F 77% 30.04 in 10.0 mi NE 4.6 mph - N/A   Overcast
7:55 PM 41.2 °F 38.2 °F 32.9 °F 72% 30.05 in 10.0 mi NE 4.6 mph - N/A   Overcast
8:15 PM 40.5 °F 37.3 °F 34.0 °F 78% 30.05 in 10.0 mi ESE 4.6 mph - N/A   Overcast
8:35 PM 40.3 °F 37.1 °F 33.8 °F 78% 30.05 in 10.0 mi East 4.6 mph - N/A   Overcast
8:55 PM 40.1 °F 36.9 °F 33.3 °F 77% 30.04 in 10.0 mi East 4.6 mph - N/A   Overcast
9:15 PM 39.6 °F 35.4 °F 33.1 °F 78% 30.05 in 10.0 mi East 5.8 mph - N/A   Overcast
9:35 PM 39.6 °F - 32.5 °F 76% 30.05 in 10.0 mi Calm Calm - N/A   Overcast
9:55 PM 39.2 °F - 33.1 °F 79% 30.05 in 10.0 mi Calm Calm - N/A   Overcast
10:15 PM 39.2 °F 35.0 °F 32.0 °F 75% 30.04 in 10.0 mi ENE 5.8 mph - N/A   Overcast
10:35 PM 39.2 °F 35.9 °F 32.4 °F 76% 30.04 in 10.0 mi East 4.6 mph - N/A   Overcast
10:55 PM 39.2 °F 37.0 °F 32.0 °F 75% 30.03 in 10.0 mi ESE 3.5 mph - N/A   Overcast
11:15 PM 38.5 °F 34.1 °F 30.0 °F 72% 30.03 in 10.0 mi NE 5.8 mph - N/A   Overcast
11:35 PM 38.1 °F - 29.1 °F 70% 30.02 in 10.0 mi Calm Calm - N/A   Overcast
11:55 PM 37.8 °F - 28.6 °F 69% 30.01 in 10.0 mi Calm Calm - N/A   Overcast